This demonstration page uses our WeatherBlox Daily Observations layout. Learn more.

Left ArrowRight Arrow

Hourly Observations for March 12, 2018

Temp ( °F °C ) Dew Point ( °F °C ) Humidity (%) Winds ( mph kmh ) Pressure ( in mb ) Visibility ( mi km ) Precip ( " mm )
12:53 am 00:53 Clear 17 -8.3 14 -10 88 88 WNW 7 11 30.48 1032 9 14 0.00 0.00
1:53 am 01:53 Clear 16 -8.9 13 -10.6 88 88 NW 6 9 30.46 1032 10 16 0.00 0.00
2:53 am 02:53 Clear 17 -8.3 14 -10 88 88 WNW 6 9 30.48 1032 9 14 0.00 0.00
3:53 am 03:53 Clear 21 -6.1 18 -7.8 88 88 NNW 8 13 30.45 1031 10 16 0.00 0.00
4:53 am 04:53 Clear 18 -7.8 15 -9.4 88 88 NW 7 11 30.45 1031 10 16 0.00 0.00
5:53 am 05:53 Clear 17 -8.3 14 -10 88 88 WNW 6 9 30.45 1031 9 14 0.00 0.00
6:53 am 06:53 Clear 16 -8.9 14 -10 92 92 WNW 6 9 30.46 1032 9 14 0.00 0.00
7:53 am 07:53 Sunny 15 -9.4 12 -11.1 88 88 NW 7 11 30.48 1032 7 11 0.00 0.00
8:53 am 08:53 Sunny 21 -6.1 18 -7.8 88 88 NW 8 13 30.48 1032 10 16 0.00 0.00
9:53 am 09:53 Sunny 29 -1.7 21 -6.1 72 72 N 9 15 30.47 1032 10 16 0.00 0.00
10:53 am 10:53 Sunny 34 1.1 19 -7.2 54 54 N 8 13 30.47 1032 10 16 0.00 0.00
11:53 am 11:53 Sunny 37 2.8 16 -8.9 42 42 NNW 7 11 30.47 1032 10 16 0.00 0.00
12:53 pm 12:53 Sunny 42 5.6 11 -11.7 28 28 NNE 8 13 30.45 1031 10 16 0.00 0.00
1:53 pm 13:53 Sunny 45 7.2 11 -11.7 25 25 undefined N/A 30.42 1030 10 16 0.00 0.00
2:53 pm 14:53 Sunny 48 8.9 11 -11.7 22 22 VRB 3 6 30.39 1029 10 16 0.00 0.00
3:53 pm 15:53 Sunny 49 9.4 12 -11.1 22 22 VRB 3 6 30.36 1028 10 16 0.00 0.00
4:53 pm 16:53 Sunny 50 10 13 -10.6 22 22 N 6 9 30.36 1028 10 16 0.00 0.00
5:53 pm 17:53 Sunny 48 8.9 14 -10 25 25 NE 8 13 30.36 1028 10 16 0.00 0.00
6:53 pm 18:53 Mostly Sunny 45 7.2 15 -9.4 30 30 NE 9 15 30.37 1028 10 16 0.00 0.00
7:53 pm 19:53 Clear 36 2.2 14 -10 40 40 NE 7 11 30.41 1030 10 16 0.00 0.00
8:53 pm 20:53 Clear 36 2.2 16 -8.9 44 44 ENE 6 9 30.40 1029 10 16 0.00 0.00
9:53 pm 21:53 Clear 33 0.6 17 -8.3 52 52 Calm 30.40 1030 10 16 0.00 0.00
10:53 pm 22:53 Clear 34 1.1 18 -7.8 52 52 NE 3 6 30.41 1030 10 16 0.00 0.00
11:53 pm 23:53 Mostly Clear 32 0 20 -6.7 61 61 NE 8 13 30.41 1030 10 16 0.00 0.00

Powered by AerisWeather